TimeEDT,TemperatureF,Dew PointF,Humidity,Sea Level PressureIn,VisibilityMPH,Wind Direction,Wind SpeedMPH,Gust SpeedMPH,PrecipitationIn,Events,Conditions,WindDirDegrees,DateUTC
12:56 AM,66.0,64.0,93,29.63,8.0,Calm,Calm,-,N/A,,Clear,0,2013-06-28 04:56:00
1:14 AM,64.4,64.4,100,29.66,5.0,Calm,Calm,-,N/A,,Scattered Clouds,0,2013-06-28 05:14:00
1:21 AM,64.4,64.4,100,29.66,2.5,Calm,Calm,-,N/A,,Mostly Cloudy,0,2013-06-28 05:21:00
1:29 AM,66.2,64.4,94,29.66,1.5,Calm,Calm,-,N/A,,Mostly Cloudy,0,2013-06-28 05:29:00
1:35 AM,66.2,64.4,94,29.66,3.0,SW,3.5,-,N/A,,Overcast,220,2013-06-28 05:35:00
1:53 AM,66.2,64.4,94,29.66,1.8,SSW,4.6,-,N/A,,Overcast,200,2013-06-28 05:53:00
1:56 AM,66.0,64.9,96,29.64,1.0,SSW,4.6,-,N/A,,Overcast,210,2013-06-28 05:56:00
2:04 AM,66.2,64.4,94,29.66,0.5,Calm,Calm,-,N/A,Fog,Fog,0,2013-06-28 06:04:00
2:40 AM,66.2,64.4,94,29.66,1.2,Calm,Calm,-,N/A,,Overcast,0,2013-06-28 06:40:00
2:56 AM,66.0,64.9,96,29.64,0.8,Calm,Calm,-,N/A,,Overcast,0,2013-06-28 06:56:00
3:56 AM,64.9,64.9,100,29.63,0.5,Calm,Calm,-,N/A,Fog,Fog,0,2013-06-28 07:56:00
4:56 AM,64.9,64.0,97,29.61,0.2,Calm,Calm,-,N/A,Fog,Fog,0,2013-06-28 08:56:00
5:43 AM,64.4,64.4,100,29.63,0.5,Calm,Calm,-,0.00,Fog-Rain,Light Rain,0,2013-06-28 09:43:00
5:49 AM,64.4,64.4,100,29.63,1.2,Calm,Calm,-,0.00,,Mostly Cloudy,0,2013-06-28 09:49:00
5:53 AM,64.4,64.4,100,29.63,3.0,SW,3.5,-,0.00,,Mostly Cloudy,230,2013-06-28 09:53:00
5:56 AM,64.9,64.0,97,29.61,3.0,Calm,Calm,-,0.00,,Scattered Clouds,0,2013-06-28 09:56:00
6:56 AM,64.9,64.0,97,29.61,4.0,WNW,3.5,-,N/A,,Partly Cloudy,290,2013-06-28 10:56:00
7:56 AM,66.9,64.9,93,29.60,5.0,WNW,5.8,-,N/A,,Partly Cloudy,290,2013-06-28 11:56:00
8:45 AM,69.8,66.2,88,29.62,5.0,West,5.8,-,N/A,,Mostly Cloudy,280,2013-06-28 12:45:00
8:56 AM,69.1,66.0,90,29.59,5.0,West,6.9,-,N/A,,Mostly Cloudy,270,2013-06-28 12:56:00
9:36 AM,71.6,66.2,83,29.62,7.0,NW,9.2,-,0.01,,Overcast,310,2013-06-28 13:36:00
9:56 AM,72.0,66.0,81,29.60,7.0,WNW,6.9,-,0.01,,Mostly Cloudy,300,2013-06-28 13:56:00
10:22 AM,71.6,66.2,83,29.61,8.0,WNW,6.9,-,N/A,,Mostly Cloudy,300,2013-06-28 14:22:00
10:40 AM,71.6,66.2,83,29.61,8.0,NNW,8.1,-,N/A,,Mostly Cloudy,330,2013-06-28 14:40:00
10:56 AM,73.0,66.9,81,29.59,8.0,NW,8.1,-,N/A,,Overcast,310,2013-06-28 14:56:00
11:09 AM,73.4,66.2,78,29.60,9.0,WNW,6.9,-,N/A,,Mostly Cloudy,290,2013-06-28 15:09:00
11:33 AM,75.2,66.2,73,29.60,10.0,WNW,11.5,-,N/A,,Mostly Cloudy,300,2013-06-28 15:33:00
11:41 AM,75.2,66.2,73,29.61,10.0,WNW,10.4,-,N/A,,Mostly Cloudy,290,2013-06-28 15:41:00
11:51 AM,75.2,66.2,73,29.60,10.0,West,13.8,19.6,N/A,,Scattered Clouds,280,2013-06-28 15:51:00
11:56 AM,75.9,66.0,71,29.58,10.0,West,11.5,19.6,N/A,,Scattered Clouds,280,2013-06-28 15:56:00
12:56 PM,78.1,66.0,66,29.56,10.0,WNW,9.2,-,N/A,,Scattered Clouds,300,2013-06-28 16:56:00
1:52 PM,73.4,60.8,65,29.57,6.0,North,24.2,32.2,0.01,Rain-Thunderstorm,Light Thunderstorms and Rain,350,2013-06-28 17:52:00
1:56 PM,68.0,57.0,68,29.55,4.0,North,17.3,32.2,0.01,Rain-Thunderstorm,Thunderstorms and Rain,360,2013-06-28 17:56:00
2:05 PM,68.0,59.0,73,29.57,8.0,Variable,5.8,21.9,0.00,Rain-Thunderstorm,Light Thunderstorms and Rain,0,2013-06-28 18:05:00
2:56 PM,72.0,64.0,76,29.55,10.0,North,3.5,-,0.00,Thunderstorm,Thunderstorm,360,2013-06-28 18:56:00
3:26 PM,73.4,64.4,73,29.56,10.0,West,16.1,20.7,N/A,,Scattered Clouds,270,2013-06-28 19:26:00
3:56 PM,69.1,62.1,78,29.55,10.0,NW,11.5,-,0.03,Rain,Light Rain,320,2013-06-28 19:56:00
4:56 PM,69.1,60.1,73,29.57,10.0,North,12.7,20.7,0.00,,Scattered Clouds,350,2013-06-28 20:56:00
5:56 PM,70.0,59.0,68,29.56,10.0,NW,5.8,-,N/A,,Clear,310,2013-06-28 21:56:00
6:56 PM,70.0,59.0,68,29.57,10.0,WNW,4.6,-,N/A,,Mostly Cloudy,290,2013-06-28 22:56:00
7:56 PM,69.1,61.0,75,29.58,10.0,West,6.9,-,N/A,,Scattered Clouds,260,2013-06-28 23:56:00
8:56 PM,64.0,60.1,87,29.59,7.0,NW,12.7,-,0.02,Rain,Light Rain,320,2013-06-29 00:56:00
9:56 PM,64.0,61.0,90,29.58,10.0,West,4.6,-,0.00,,Overcast,260,2013-06-29 01:56:00
10:56 PM,63.0,61.0,93,29.59,9.0,West,4.6,-,N/A,,Clear,270,2013-06-29 02:56:00
11:56 PM,63.0,61.0,93,29.57,10.0,Calm,Calm,-,N/A,,Mostly Cloudy,0,2013-06-29 03:56:00